JJA119 RKSS-RKPC

Flight info

Callsign JJA119
Flight time 0h 47m
Altitude 26000
Route BULTI Y711 DOTOL
Aircraft B38M/M-SDE1FGHILORVWXY/HB1

Departure

Time 2025-09-07 03:25
Airport Gimpo International Airport (RKSS)

Arrival

Time 2025-09-07 04:12
Airport Jeju International Airport (RKPC)
Time Latitude Longitude Altitude Speed Heading
2025-09-07 03:04 37.55964 126.80070 69 ft 0 kts 46°
2025-09-07 03:10 37.55956 126.80060 69 ft 3 kts 45°
2025-09-07 03:10 37.55927 126.80023 59 ft 3 kts 45°
2025-09-07 03:11 37.55907 126.79999 61 ft 0 kts 31°
2025-09-07 03:11 37.55908 126.80000 61 ft 0 kts 31°
2025-09-07 03:12 37.55909 126.80002 62 ft 0 kts 42°
2025-09-07 03:12 37.55897 126.79982 60 ft 3 kts 69°
2025-09-07 03:13 37.55893 126.79981 59 ft 1 kts 133°
2025-09-07 03:13 37.55888 126.79985 63 ft 0 kts 145°
2025-09-07 03:14 37.55847 126.80025 64 ft 11 kts 138°
2025-09-07 03:14 37.55720 126.80184 68 ft 15 kts 135°
2025-09-07 03:15 37.55451 126.80473 66 ft 18 kts 135°
2025-09-07 03:15 37.55360 126.80588 68 ft 19 kts 135°
2025-09-07 03:16 37.55187 126.80806 68 ft 15 kts 134°
2025-09-07 03:16 37.55064 126.80962 66 ft 13 kts 136°
2025-09-07 03:17 37.54951 126.80917 63 ft 12 kts 224°
2025-09-07 03:17 37.54900 126.80852 65 ft 0 kts 225°
2025-09-07 03:20 37.54874 126.80818 59 ft 9 kts 225°
2025-09-07 03:20 37.54857 126.80797 63 ft 0 kts 225°
2025-09-07 03:22 37.54848 126.80785 63 ft 6 kts 225°
2025-09-07 03:22 37.54833 126.80640 61 ft 0 kts 316°
2025-09-07 03:24 37.55095 126.80310 61 ft 87 kts 315°
2025-09-07 03:24 37.56444 126.78599 390 ft 164 kts 314°
2025-09-07 03:25 37.58042 126.76470 1764 ft 172 kts 313°
2025-09-07 03:25 37.59889 126.74012 2575 ft 217 kts 313°
2025-09-07 03:25 37.60957 126.72592 3075 ft 236 kts 313°
2025-09-07 03:26 37.62118 126.68633 4272 ft 261 kts 261°
2025-09-07 03:26 37.60148 126.64774 4828 ft 270 kts 229°
2025-09-07 03:27 37.56116 126.59833 5191 ft 272 kts 206°
2025-09-07 03:28 37.52296 126.58918 6660 ft 286 kts 189°
2025-09-07 03:28 37.48309 126.58325 8176 ft 291 kts 189°
2025-09-07 03:29 37.44264 126.57763 9760 ft 295 kts 189°
2025-09-07 03:29 37.39983 126.57429 10569 ft 330 kts 173°
2025-09-07 03:29 37.37690 126.58041 10957 ft 344 kts 171°
2025-09-07 03:30 37.32895 126.59324 11714 ft 357 kts 170°
2025-09-07 03:30 37.28108 126.60889 13096 ft 361 kts 169°
2025-09-07 03:31 37.23162 126.62496 14433 ft 368 kts 169°
2025-09-07 03:32 37.15662 126.64966 16361 ft 378 kts 169°
2025-09-07 03:32 37.13111 126.65805 16986 ft 381 kts 169°
2025-09-07 03:32 37.07944 126.67502 18195 ft 387 kts 170°
2025-09-07 03:33 37.02704 126.69221 19233 ft 391 kts 170°
2025-09-07 03:33 36.97408 126.70961 20235 ft 395 kts 171°
2025-09-07 03:34 36.92056 126.72717 21189 ft 400 kts 171°
2025-09-07 03:34 36.86751 126.75109 22119 ft 410 kts 163°
2025-09-07 03:35 36.78748 126.79193 23387 ft 419 kts 163°
2025-09-07 03:36 36.73318 126.81891 24083 ft 419 kts 170°
2025-09-07 03:36 36.67599 126.82590 24692 ft 415 kts 183°
2025-09-07 03:36 36.64709 126.82748 25048 ft 417 kts 183°
2025-09-07 03:39 36.38424 126.83712 25857 ft 454 kts 188°
2025-09-07 03:40 36.16423 126.81362 25869 ft 454 kts 189°
2025-09-07 03:42 35.91197 126.78628 25870 ft 457 kts 189°
2025-09-07 03:45 35.62695 126.75545 25876 ft 457 kts 189°
2025-09-07 03:46 35.40443 126.73157 25882 ft 459 kts 189°
2025-09-07 03:48 35.14955 126.70439 25881 ft 461 kts 188°
2025-09-07 03:50 34.89638 126.67754 25196 ft 443 kts 188°
2025-09-07 03:51 34.80469 126.66785 23487 ft 441 kts 188°
2025-09-07 03:52 34.74369 126.66142 22191 ft 437 kts 188°
2025-09-07 03:52 34.71354 126.65824 21613 ft 433 kts 188°
2025-09-07 03:53 34.62466 126.64889 19930 ft 423 kts 188°
2025-09-07 03:53 34.59537 126.64582 19383 ft 420 kts 188°
2025-09-07 03:53 34.53757 126.63975 18309 ft 414 kts 187°
2025-09-07 03:54 34.48096 126.63383 17196 ft 408 kts 187°
2025-09-07 03:54 34.42499 126.62797 16173 ft 399 kts 187°
2025-09-07 03:55 34.34288 126.61940 14727 ft 389 kts 187°
2025-09-07 03:56 34.29057 126.61395 13838 ft 364 kts 188°
2025-09-07 03:56 34.24035 126.60872 12853 ft 361 kts 188°
2025-09-07 03:57 34.19089 126.60357 12138 ft 351 kts 188°
2025-09-07 03:57 34.16684 126.60107 11955 ft 341 kts 188°
2025-09-07 03:57 34.12096 126.59630 11644 ft 322 kts 188°
2025-09-07 03:58 34.07756 126.59180 11350 ft 303 kts 188°
2025-09-07 03:58 34.03722 126.58763 11055 ft 283 kts 187°
2025-09-07 03:59 33.98698 126.62234 10079 ft 307 kts 116°
2025-09-07 04:00 33.97973 126.67311 9339 ft 310 kts 98°
2025-09-07 04:00 33.97479 126.72491 8586 ft 312 kts 98°
2025-09-07 04:00 33.97237 126.75050 8208 ft 312 kts 98°
2025-09-07 04:01 33.95464 126.79564 7595 ft 294 kts 146°
2025-09-07 04:01 33.91809 126.80798 7152 ft 265 kts 189°
2025-09-07 04:02 33.88201 126.80299 6735 ft 259 kts 191°
2025-09-07 04:02 33.84692 126.79710 6274 ft 252 kts 192°
2025-09-07 04:03 33.79540 126.78779 5443 ft 248 kts 192°
2025-09-07 04:04 33.76128 126.78149 4878 ft 248 kts 192°
2025-09-07 04:04 33.74459 126.77840 4713 ft 243 kts 192°
2025-09-07 04:04 33.71217 126.77238 4442 ft 229 kts 192°
2025-09-07 04:05 33.68170 126.76673 4168 ft 213 kts 192°
2025-09-07 04:05 33.65314 126.75918 3930 ft 211 kts 215°
2025-09-07 04:06 33.63555 126.73197 3579 ft 211 kts 238°
2025-09-07 04:06 33.61986 126.70207 3253 ft 207 kts 238°
2025-09-07 04:07 33.60537 126.67405 2941 ft 191 kts 238°
2025-09-07 04:07 33.59242 126.64897 2877 ft 160 kts 239°
2025-09-07 04:08 33.57488 126.61496 2284 ft 162 kts 239°
2025-09-07 04:09 33.56306 126.59189 1874 ft 162 kts 239°
2025-09-07 04:09 33.55173 126.56976 1476 ft 142 kts 240°
2025-09-07 04:10 33.54168 126.55006 1126 ft 137 kts 240°
2025-09-07 04:10 33.53191 126.53095 734 ft 135 kts 241°
2025-09-07 04:10 33.52696 126.52125 620 ft 139 kts 242°
2025-09-07 04:11 33.51235 126.49272 94 ft 121 kts 241°
2025-09-07 04:12 33.50629 126.48203 95 ft 45 kts 210°
2025-09-07 04:12 33.50590 126.48389 96 ft 26 kts 59°
2025-09-07 04:13 33.50541 126.48582 95 ft 16 kts 120°
2025-09-07 04:13 33.50638 126.48831 94 ft 19 kts 60°
2025-09-07 04:13 33.50710 126.48974 92 ft 20 kts 59°
2025-09-07 04:14 33.50809 126.48983 93 ft 0 kts 328°
2025-09-07 04:14 33.53464 126.53638 825 ft 141 kts 240°
2025-09-07 04:15 33.51984 126.50742 358 ft 134 kts 242°
2025-09-07 04:16 33.51136 126.49084 90 ft 50 kts 240°